Location: LDNL
(36.4545°S, 141.6685°E)
Time: 12:01:23
(UTC+10:00)

Tiros 1 despin weight - Pass Details

Date: 09 August 2022
Orbit: 590 x 639 km, 48.2° (Epoch: 23 September)

Event Time Altitude Azimuth Distance (km) Brightness Sun altitude
Rises 02:02:32 0° 293° (WNW) 2,909 - -62.4°
Reaches altitude 10° 02:04:52 10° 288° (WNW) 2,014 - -62.0°
Maximum altitude 02:09:26 54° 210° (SSW) 778 - -61.4°
Drops below altitude 10° 02:14:05 10° 132° (SE) 2,049 - -60.6°
Sets 02:16:29 0° 127° (SE) 2,965 - -60.2°
